パンスターズ彗星

P/2015 F1 ( PanSTARRS )

English version
Home page
Updated on August 9, 2016

---------------------------------------------------------------------

・ プロフィール

発見日 2015年3月21日
発見光度 19.1等
発見者 Pan-STARRS 1 telescope (Haleakala)

・ 写真集

・ 軌道要素

Epoch 2015 Feb. 27.0 TT = JDT 2457080.5
T 2015 Mar. 14.91753 TT                                 MPCW
q   2.5415909            (2000.0)            P               Q
n   0.14917943     Peri.  187.12840     -0.67493455     +0.73719506
a   3.5209789      Node    40.43002     -0.67455144     -0.59901037
e   0.2781579      Incl.    2.80443     -0.29907141     -0.31261801
P   6.61
From 194 observations 2015 Mar. 21-Aug. 16, mean residual 0".5.

・ 光度変化

        m1 = 11.8 + 5 logΔ + 10.0 log r

---------------------------------------------------------------------

軌道要素はM.P.E.C. 2015-Q71に掲載されたものです。
光度グラフはComet for Windowsで作成したものです。

---------------------------------------------------------------------

Copyright(C) Seiichi Yoshida (comet@aerith.net). All rights reserved.